SCP
0 1 1 1 1 1 1 1 0 0 0 0 0 0 0 0 0 0 0 0 0 0
0 1 1 1 1 1 1 1 1 0 0 0 0 0 0 0 0 0 0 0 0 0
0 0 0 0 0 0 0 0 0 0 0 0 0 0 0 0 0 0 0 0 0 0
0 0 0 0 0 0 0 0 0 0 0 0 0 0 0 0 0 0 0 0 0 0
0 0 0 0 0 0 0 0 0 0 0 0 0 0 0 0 0 0 0 0 0 0
0 0 0 0 0 0 0 0 0 0 0 0 0 0 0 0 0 0 0 0 0 0
0 0 0 0 0 0 0 0 0 0 0 0 0 0 0 0 0 0 0 0 0 0
0 0 0 0 0 0 0 0 0 0 0 0 0 0 0 0 0 0 0 0 0 0
0 0 0 0 0 0 0 0 0 0 0 0 0 0 0 0 0 0 0 0 0 0
0 0 0 0 0 0 0 0 0 0 0 0 0 0 0 0 0 0 0 0 0 0
0 0 0 0 0 0 0 0 0 0 0 0 0 0 0 0 0 0 0 0 0 0
0 0 0 0 0 0 0 0 0 0 0 0 0 0 0 0 0 0 0 0 0 0
0 0 0 0 0 0 0 0 0 0 0 0 0 0 0 0 0 0 0 0 0 0
0 0 0 0 0 0 0 0 0 0 0 0 0 0 0 0 0 0 0 0 0 0
Wind_Speed_500mb
79 81 79 77 76 70 63 60 55 58 59 59 52 45 41 39 42 42 42 41 35 35
83 85 85 81 77 71 63 60 59 59 61 60 55 49 42 39 41 41 39 36 33 32
84 86 84 81 79 73 63 64 60 58 61 59 60 48 39 39 40 40 38 38 36 35
79 78 75 74 71 68 68 66 66 64 63 55 58 48 41 42 43 41 44 38 39 39
60 62 62 64 60 64 63 60 60 58 56 57 55 51 42 45 49 44 47 44 36 35
50 53 53 57 62 60 60 58 54 52 53 59 54 49 43 43 44 45 47 36 34 33
44 48 52 55 57 58 53 47 44 46 49 48 44 40 44 46 43 41 37 35 33 30
41 44 44 45 44 41 40 39 40 45 44 43 40 40 42 42 41 39 36 35 33 33
33 33 32 34 35 34 37 42 47 46 42 37 38 37 40 38 39 37 35 34 34 30
31 32 31 31 37 38 44 48 48 46 40 38 37 39 39 37 36 35 35 33 29 26
33 33 34 39 38 41 44 47 51 45 41 39 42 44 45 42 38 35 32 29 27 27
35 35 38 41 43 46 47 49 50 45 44 43 47 47 45 41 38 34 30 31 29 28
34 35 37 40 45 46 46 45 47 46 44 43 44 42 42 41 38 35 33 32 30 31
34 36 38 41 43 44 45 46 45 44 45 44 42 43 44 42 39 34 33 32 32 32
Wind_Direction_500mb
240 240 240 241 243 243 244 247 241 240 240 244 247 246 254 262 259 257 259 257 258 264
242 241 238 239 241 243 242 243 241 239 240 242 242 242 255 260 252 253 253 255 253 253
241 241 241 238 238 238 237 236 240 239 240 238 241 240 254 249 248 248 249 250 248 250
239 239 240 243 243 237 240 240 242 241 239 233 236 236 249 248 247 249 249 248 245 229
241 244 244 244 244 246 245 243 242 239 233 232 226 229 237 246 247 227 252 247 225 235
239 240 241 242 245 248 248 247 242 234 224 226 223 229 239 238 241 247 233 219 230 234
242 244 246 246 246 246 246 241 228 217 218 217 222 231 239 240 234 222 225 227 229 229
244 244 242 241 239 233 227 211 206 216 214 214 230 240 231 226 221 229 228 226 223 227
239 237 233 228 217 210 201 207 203 211 211 232 239 231 225 225 229 223 220 222 228 234
230 227 223 214 206 205 203 200 212 212 223 231 231 223 223 219 217 217 220 225 232 244
228 225 215 208 210 208 212 218 212 218 226 233 223 220 215 210 211 217 223 230 241 253
232 228 220 211 210 213 216 217 219 222 226 224 217 211 210 211 215 217 226 240 248 257
236 234 228 219 215 216 218 222 224 223 220 215 214 213 215 214 216 222 235 243 250 258
232 230 228 228 225 223 223 224 224 221 218 214 215 217 218 218 223 233 239 245 253 258
Wind_Speed_850mb
79 81 79 77 76 70 63 60 55 58 59 59 52 45 41 39 42 42 42 41 35 35
83 85 85 81 77 71 63 60 59 59 61 60 55 49 42 39 41 41 39 36 33 32
84 86 84 81 79 73 63 64 60 58 61 59 60 48 39 39 40 40 38 38 36 35
79 78 75 74 71 68 68 66 66 64 63 55 58 48 41 42 43 41 44 38 39 39
60 62 62 64 60 64 63 60 60 58 56 57 55 51 42 45 49 44 47 44 36 35
50 53 53 57 62 60 60 58 54 52 53 59 54 49 43 43 44 45 47 36 34 33
44 48 52 55 57 58 53 47 44 46 49 48 44 40 44 46 43 41 37 35 33 30
41 44 44 45 44 41 40 39 40 45 44 43 40 40 42 42 41 39 36 35 33 33
33 33 32 34 35 34 37 42 47 46 42 37 38 37 40 38 39 37 35 34 34 30
31 32 31 31 37 38 44 48 48 46 40 38 37 39 39 37 36 35 35 33 29 26
33 33 34 39 38 41 44 47 51 45 41 39 42 44 45 42 38 35 32 29 27 27
35 35 38 41 43 46 47 49 50 45 44 43 47 47 45 41 38 34 30 31 29 28
34 35 37 40 45 46 46 45 47 46 44 43 44 42 42 41 38 35 33 32 30 31
34 36 38 41 43 44 45 46 45 44 45 44 42 43 44 42 39 34 33 32 32 32
Wind_Direction_850mb
240 240 240 241 243 243 244 247 241 240 240 244 247 246 254 262 259 257 259 257 258 264
242 241 238 239 241 243 242 243 241 239 240 242 242 242 255 260 252 253 253 255 253 253
241 241 241 238 238 238 237 236 240 239 240 238 241 240 254 249 248 248 249 250 248 250
239 239 240 243 243 237 240 240 242 241 239 233 236 236 249 248 247 249 249 248 245 229
241 244 244 244 244 246 245 243 242 239 233 232 226 229 237 246 247 227 252 247 225 235
239 240 241 242 245 248 248 247 242 234 224 226 223 229 239 238 241 247 233 219 230 234
242 244 246 246 246 246 246 241 228 217 218 217 222 231 239 240 234 222 225 227 229 229
244 244 242 241 239 233 227 211 206 216 214 214 230 240 231 226 221 229 228 226 223 227
239 237 233 228 217 210 201 207 203 211 211 232 239 231 225 225 229 223 220 222 228 234
230 227 223 214 206 205 203 200 212 212 223 231 231 223 223 219 217 217 220 225 232 244
228 225 215 208 210 208 212 218 212 218 226 233 223 220 215 210 211 217 223 230 241 253
232 228 220 211 210 213 216 217 219 222 226 224 217 211 210 211 215 217 226 240 248 257
236 234 228 219 215 216 218 222 224 223 220 215 214 213 215 214 216 222 235 243 250 258
232 230 228 228 225 223 223 224 224 221 218 214 215 217 218 218 223 233 239 245 253 258